Find Starlink 32380

NORAD ID: 61069 Int'l Des: 2024-164 Owner: SPXS Country: US Constellation: starlink operational
LEOCIRCULAR

現在のビュー

3D地球を読み込み中...

About Starlink 32380

Starlink 32380 (NORAD 61069) is a starlink constellation satellite (v2 mini) launched Sep 13, 2024 by SPXS of US. It operates in LEO, CIRCULAR orbit with a mass of 730.00 kg.

Starlink 32380について

説明を読み込み中...

次回通過

Passes for default location (London). Set your location on the main map for personalized predictions.

高度履歴

Loading altitude history...

軌道要素

1 61069U 24164V 26171.17812585 .00000448 00000-0 26182-4 0 9992
2 61069 53.1625 334.7465 0001174 85.9059 274.2077 15.31704882 99171
Epoch: Jun 20, 2026 • Age: 42 hours

現在のステータス

高度 470.9 km
速度 7.63 km/s
衛星直下点 6.26°N, 82.22°E
打ち上げ日 Sep 13, 2024
運用期間 1.7 years
タイプ internet

技術仕様

分類 Payload
質量 730.00 kg
乾燥質量 700.00 kg
総質量 730.00 kg
長さ 0.30 m
直径 4.10 m
スパン 29.00 m
形状 Box + pan
製造者 SPXS
バスタイプ Starlink V2M
フェーズステータス In Orbit
所有者/国 SPXS/US

Most Searched